When you browse on this site, cookies collect data to enhance your experience and personalize the content and advertising you see.
Visit our Privacy Policy to learn more. By continuing to use the site, you agree to this use of cookies and data.
  • en Suisse
  • Liste des pays
  • À 7 jours
  • Température de l'eau
  • Carte satellitaire
  • Carte météo
  • Widgets météo
  • user-avatar
    Se connecter

    Météo par heure à Porto Alegre

    Ce jour, 24 Janvier, Jeudi

    Heure Température Précipitation Vent Pression Humidité
    00:00 +27°C° 0 mm 2 m/s 758 mmHg 83%
    01:00 +26°C° 0 mm 2 m/s 758 mmHg 85%
    02:00 +26°C° 0 mm 2 m/s 758 mmHg 87%
    03:00 +26°C° 0 mm 2 m/s 758 mmHg 89%
    04:00 +26°C° 0 mm 2 m/s 758 mmHg 90%
    05:00 +26°C° 0 mm 2 m/s 758 mmHg 91%
    06:00 +26°C° 0 mm 2 m/s 758 mmHg 91%
    07:00 +27°C° 0 mm 2 m/s 759 mmHg 85%
    08:00 +29°C° 0 mm 3 m/s 759 mmHg 78%
    09:00 +30°C° 0 mm 3 m/s 759 mmHg 71%
    10:00 +33°C° 0 mm 3 m/s 759 mmHg 64%
    11:00 +34°C° 0 mm 4 m/s 759 mmHg 58%
    12:00 +36°C° 0 mm 4 m/s 759 mmHg 52%
    13:00 +36°C° 0 mm 5 m/s 759 mmHg 51%
    14:00 +36°C° 0 mm 5 m/s 759 mmHg 51%
    15:00 +36°C° 0 mm 5 m/s 759 mmHg 50%
    16:00 +35°C° 0 mm 5 m/s 759 mmHg 54%
    17:00 +34°C° 0 mm 5 m/s 759 mmHg 58%
    18:00 +32°C° 0 mm 6 m/s 758 mmHg 63%
    19:00 +30°C° 0 mm 5 m/s 759 mmHg 66%
    20:00 +29°C° 0 mm 5 m/s 759 mmHg 70%
    21:00 +28°C° 0 mm 4 m/s 760 mmHg 74%
    22:00 +27°C° 0 mm 4 m/s 760 mmHg 75%
    23:00 +27°C° 0 mm 4 m/s 760 mmHg 76%

    Demain, 25 Janvier, Vendredi

    Heure Température Précipitation Vent Pression Humidité
    00:00 +26°C° 0 mm 4 m/s 760 mmHg 77%
    01:00 +26°C° 0 mm 3 m/s 760 mmHg 78%
    02:00 +26°C° 0 mm 3 m/s 759 mmHg 80%
    03:00 +25°C° 0 mm 3 m/s 759 mmHg 81%
    04:00 +25°C° 0 mm 3 m/s 759 mmHg 82%
    05:00 +25°C° 0 mm 2 m/s 759 mmHg 83%
    06:00 +24°C° 0 mm 2 m/s 759 mmHg 85%
    07:00 +26°C° 0 mm 2 m/s 759 mmHg 78%
    08:00 +28°C° 0 mm 2 m/s 760 mmHg 71%
    09:00 +29°C° 0 mm 2 m/s 760 mmHg 63%
    10:00 +31°C° 0 mm 3 m/s 759 mmHg 57%
    11:00 +34°C° 0 mm 3 m/s 759 mmHg 51%
    12:00 +35°C° 0 mm 3 m/s 759 mmHg 45%
    13:00 +36°C° 0 mm 4 m/s 758 mmHg 44%
    14:00 +36°C° 0 mm 4 m/s 758 mmHg 44%
    15:00 +37°C° 0 mm 4 m/s 758 mmHg 43%
    16:00 +36°C° 0 mm 4 m/s 757 mmHg 48%
    17:00 +34°C° 0 mm 5 m/s 757 mmHg 54%
    18:00 +33°C° 0 mm 5 m/s 757 mmHg 59%
    19:00 +32°C° 0 mm 5 m/s 757 mmHg 64%
    20:00 +30°C° 0 mm 4 m/s 757 mmHg 68%
    21:00 +28°C° 0 mm 4 m/s 758 mmHg 72%
    22:00 +28°C° 0 mm 3 m/s 758 mmHg 74%
    23:00 +27°C° 0 mm 3 m/s 758 mmHg 76%

    Après-demain, 26 Janvier, Samedi

    Heure Température Précipitation Vent Pression Humidité
    00:00 +27°C° 0 mm 2 m/s 758 mmHg 78%
    01:00 +27°C° 0 mm 2 m/s 757 mmHg 79%
    02:00 +26°C° 0 mm 2 m/s 757 mmHg 80%
    03:00 +26°C° 0 mm 2 m/s 757 mmHg 81%
    04:00 +25°C° 0 mm 1 m/s 757 mmHg 82%
    05:00 +25°C° 0 mm 1 m/s 757 mmHg 83%
    06:00 +25°C° 0 mm 1 m/s 758 mmHg 84%
    07:00 +27°C° 0 mm 1 m/s 758 mmHg 75%
    08:00 +29°C° 0 mm 1 m/s 758 mmHg 66%
    09:00 +31°C° 0 mm 1 m/s 759 mmHg 57%
    10:00 +33°C° 0 mm 1 m/s 759 mmHg 50%
    11:00 +35°C° 0 mm 1 m/s 758 mmHg 43%
    12:00 +38°C° 0 mm 2 m/s 758 mmHg 37%
    13:00 +39°C° 0 mm 2 m/s 758 mmHg 35%
    14:00 +39°C° 0 mm 3 m/s 757 mmHg 34%
    15:00 +40°C° 0 mm 3 m/s 756 mmHg 32%
    16:00 +38°C° 0 mm 3 m/s 756 mmHg 39%
    17:00 +37°C° 0 mm 4 m/s 756 mmHg 45%
    18:00 +35°C° 0 mm 4 m/s 756 mmHg 52%
    19:00 +34°C° 0 mm 4 m/s 757 mmHg 58%
    20:00 +31°C° 0 mm 3 m/s 757 mmHg 64%
    21:00 +29°C° 0 mm 3 m/s 758 mmHg 70%
    22:00 +29°C° 0 mm 3 m/s 758 mmHg 73%
    23:00 +28°C° 0 mm 2 m/s 758 mmHg 75%

    27 Janvier, Dimanche

    Heure Température Précipitation Vent Pression Humidité
    00:00 +27°C° 0 mm 2 m/s 758 mmHg 78%
    01:00 +27°C° 0 mm 2 m/s 758 mmHg 80%
    02:00 +26°C° 0 mm 2 m/s 757 mmHg 82%
    03:00 +26°C° 0 mm 1 m/s 757 mmHg 84%
    04:00 +26°C° 0 mm 1 m/s 757 mmHg 85%
    05:00 +25°C° 0 mm 1 m/s 758 mmHg 85%
    06:00 +25°C° 0 mm 1 m/s 758 mmHg 86%
    07:00 +27°C° 0 mm 1 m/s 758 mmHg 76%
    08:00 +29°C° 0 mm 2 m/s 759 mmHg 66%
    09:00 +31°C° 0 mm 2 m/s 759 mmHg 56%
    10:00 +34°C° 0 mm 2 m/s 759 mmHg 48%
    11:00 +37°C° 0 mm 2 m/s 759 mmHg 40%
    12:00 +39°C° 0 mm 1 m/s 758 mmHg 32%
    13:00 +40°C° 0 mm 2 m/s 758 mmHg 30%
    14:00 +41°C° 0 mm 2 m/s 757 mmHg 28%
    15:00 +42°C° 0 mm 2 m/s 757 mmHg 26%
    16:00 +40°C° 0 mm 3 m/s 757 mmHg 33%
    17:00 +38°C° 0 mm 3 m/s 756 mmHg 40%
    18:00 +36°C° 0 mm 4 m/s 756 mmHg 48%
    19:00 +35°C° 0 mm 4 m/s 757 mmHg 51%
    20:00 +34°C° 0 mm 3 m/s 757 mmHg 55%
    21:00 +31°C° 0 mm 3 m/s 757 mmHg 59%
    22:00 +31°C° 0 mm 2 m/s 758 mmHg 61%
    23:00 +30°C° 0 mm 2 m/s 758 mmHg 64%

    28 Janvier, Lundi

    Heure Température Précipitation Vent Pression Humidité
    00:00 +29°C° 0 mm 2 m/s 758 mmHg 66%
    01:00 +29°C° 0 mm 1 m/s 758 mmHg 67%
    02:00 +28°C° 0 mm 1 m/s 757 mmHg 68%
    03:00 +28°C° 0 mm 1 m/s 757 mmHg 69%
    04:00 +27°C° 0 mm 1 m/s 757 mmHg 69%
    05:00 +27°C° 0 mm 1 m/s 757 mmHg 69%
    06:00 +27°C° 0 mm 1 m/s 758 mmHg 68%
    07:00 +28°C° 0 mm 2 m/s 758 mmHg 63%
    08:00 +30°C° 0 mm 2 m/s 759 mmHg 58%
    09:00 +32°C° 0 mm 2 m/s 759 mmHg 53%
    10:00 +35°C° 0 mm 2 m/s 759 mmHg 47%
    11:00 +37°C° 0 mm 2 m/s 758 mmHg 41%
    12:00 +39°C° 0 mm 3 m/s 758 mmHg 35%
    13:00 +40°C° 0 mm 2 m/s 758 mmHg 33%
    14:00 +40°C° 0 mm 2 m/s 757 mmHg 31%
    15:00 +41°C° 0 mm 2 m/s 757 mmHg 29%
    16:00 +40°C° 0 mm 2 m/s 757 mmHg 33%
    17:00 +39°C° 0 mm 1 m/s 757 mmHg 36%
    18:00 +37°C° 0 mm 1 m/s 756 mmHg 40%
    19:00 +36°C° 0 mm 2 m/s 757 mmHg 46%
    20:00 +34°C° 0 mm 2 m/s 757 mmHg 53%
    21:00 +31°C° 0 mm 2 m/s 758 mmHg 59%
    22:00 +31°C° 0 mm 2 m/s 758 mmHg 61%
    23:00 +30°C° 0 mm 1 m/s 758 mmHg 63%

    29 Janvier, Mardi

    Heure Température Précipitation Vent Pression Humidité
    00:00 +30°C° 0 mm 1 m/s 758 mmHg 66%
    01:00 +29°C° 0 mm 1 m/s 757 mmHg 66%
    02:00 +29°C° 0 mm 1 m/s 757 mmHg 66%
    03:00 +28°C° 0 mm 1 m/s 757 mmHg 66%
    04:00 +28°C° 0 mm 1 m/s 757 mmHg 65%
    05:00 +28°C° 0 mm 1 m/s 757 mmHg 65%
    06:00 +28°C° 0 mm 2 m/s 757 mmHg 64%
    07:00 +30°C° 0 mm 2 m/s 757 mmHg 59%
    08:00 +31°C° 0 mm 3 m/s 758 mmHg 55%
    09:00 +34°C° 0 mm 3 m/s 758 mmHg 50%
    10:00 +36°C° 0 mm 3 m/s 758 mmHg 45%
    11:00 +38°C° 0 mm 3 m/s 758 mmHg 39%
    12:00 +40°C° 0 mm 3 m/s 757 mmHg 33%
    13:00 +40°C° 0 mm 3 m/s 757 mmHg 32%
    14:00 +42°C° 0 mm 3 m/s 756 mmHg 32%
    15:00 +42°C° 0 mm 3 m/s 756 mmHg 31%
    16:00 +40°C° 0 mm 2 m/s 756 mmHg 34%
    17:00 +39°C° 0 mm 2 m/s 755 mmHg 36%
    18:00 +37°C° 0 mm 1 m/s 755 mmHg 39%
    19:00 +36°C° 0 mm 1 m/s 755 mmHg 44%
    20:00 +34°C° 0 mm 1 m/s 756 mmHg 49%
    21:00 +32°C° 0 mm 1 m/s 756 mmHg 54%
    22:00 +32°C° 0.1 mm 1 m/s 756 mmHg 57%
    23:00 +31°C° 0.1 mm 1 m/s 756 mmHg 60%
    Voir plus